This is the latest recevied weather packets stored in our database for station/object N0ZJT. If no packets are shown the sender has not sent any weather packets the latest 10 day(s).
| Time | Temp. | Humidity | Pressure | Rain* | Wind** | Luminosity | Snow |
|---|---|---|---|---|---|---|---|
| 1777596290 | 10° C | 41% | 976.9 hPa | 0 mm | - | - | - |
| 1777595330 | 10.56° C | 41% | 976.8 hPa | 0 mm | - | - | - |
| 1777594490 | 10.56° C | 42% | 976.5 hPa | 0 mm | - | - | - |
| 1777593530 | 11.11° C | 42% | 976.5 hPa | 0 mm | - | - | - |
| 1777592690 | 11.67° C | 40% | 976.2 hPa | 0 mm | - | - | - |
| 1777591730 | 11.67° C | 39% | 976.1 hPa | 0 mm | - | - | - |
| 1777590890 | 12.22° C | 37% | 975.8 hPa | 0 mm | - | - | - |
| 1777589930 | 12.78° C | 36% | 976 hPa | 0 mm | - | - | - |
| 1777589090 | 13.89° C | 34% | 976.2 hPa | 0 mm | - | - | - |
| 1777588130 | 13.89° C | 33% | 975.9 hPa | 0 mm | - | - | - |
| 1777587290 | 14.44° C | 35% | 975.8 hPa | 0 mm | - | - | - |
| 1777586330 | 13.89° C | 37% | 976 hPa | 0 mm | - | - | - |
| 1777585490 | 13.89° C | 35% | 976 hPa | 0 mm | - | - | - |
| 1777584530 | 13.89° C | 38% | 976 hPa | 0 mm | - | - | - |
| 1777583691 | 13.33° C | 37% | 976 hPa | 0 mm | - | - | - |
| 1777582730 | 13.33° C | 39% | 976.1 hPa | 0 mm | - | - | - |
| 1777581890 | 13.33° C | 41% | 976.2 hPa | 0 mm | - | - | - |
| 1777580930 | 13.89° C | 42% | 976.3 hPa | 0 mm | - | - | - |
| 1777580090 | 13.33° C | 42% | 976.3 hPa | 0 mm | - | - | - |
| 1777579130 | 12.78° C | 43% | 976.7 hPa | 0 mm | - | - | - |
| 1777578290 | 12.22° C | 46% | 977 hPa | 0 mm | - | - | - |
| 1777577330 | 12.78° C | 48% | 977 hPa | 0 mm | - | - | - |
| 1777576490 | 12.78° C | 48% | 977 hPa | 0 mm | - | - | - |
| 1777575782 | 12.78° C | 49% | 977.2 hPa | 0 mm | - | - | - |
| 1777575530 | 12.78° C | 49% | 977.2 hPa | 0 mm | - | - | - |
* Rain latest hour (hover to see other rain measurements)
** Current wind speed in m/s (hover to see current wind gust speed)